When you browse on this site, cookies collect data to enhance your experience and personalize the content and advertising you see.
Visit our Privacy Policy to learn more. By continuing to use the site, you agree to this use of cookies and data.
  • In Austria
  • List of Countries
  • For 7 days
  • Water Temperature
  • Weather Map
  • News
  • Weather Widgets
  • user-avatar
    Login

    Hourly Weather Tirana

    Today, 23 February, Sunday

    Time Temperature Precipitation Wind Pressure Humidity
    00:00 +4°C° 0 mm 3 mps 764 mmHg 57%
    01:00 +5°C° 0 mm 2 mps 764 mmHg 57%
    02:00 +5°C° 0 mm 2 mps 763 mmHg 57%
    03:00 +5°C° 0 mm 2 mps 763 mmHg 56%
    04:00 +5°C° 0 mm 2 mps 762 mmHg 56%
    05:00 +5°C° 0 mm 2 mps 762 mmHg 56%
    06:00 +5°C° 0 mm 2 mps 762 mmHg 57%
    07:00 +5°C° 0 mm 2 mps 762 mmHg 58%
    08:00 +8°C° 0 mm 1 mps 762 mmHg 52%
    09:00 +10°C° 0 mm 1 mps 762 mmHg 47%
    10:00 +12°C° 0 mm 1 mps 762 mmHg 41%
    11:00 +13°C° 0 mm 1 mps 761 mmHg 41%
    12:00 +14°C° 0 mm 1 mps 761 mmHg 40%
    13:00 +14°C° 0 mm 1 mps 761 mmHg 39%
    14:00 +14°C° 0 mm 1 mps 760 mmHg 44%
    15:00 +14°C° 0 mm 1 mps 760 mmHg 48%
    16:00 +13°C° 0 mm 1 mps 759 mmHg 52%
    17:00 +12°C° 0 mm 1 mps 759 mmHg 56%
    18:00 +11°C° 0 mm 1 mps 759 mmHg 59%
    19:00 +10°C° 0 mm 1 mps 760 mmHg 63%
    20:00 +9°C° 0 mm 1 mps 760 mmHg 63%
    21:00 +9°C° 0 mm 1 mps 759 mmHg 64%
    22:00 +9°C° 0 mm 1 mps 759 mmHg 64%
    23:00 +9°C° 0 mm 1 mps 759 mmHg 64%

    Tomorrow, 24 February, Monday

    Time Temperature Precipitation Wind Pressure Humidity
    00:00 +9°C° 0 mm 1 mps 759 mmHg 63%
    01:00 +9°C° 0 mm 1 mps 759 mmHg 63%
    02:00 +8°C° 0 mm 1 mps 758 mmHg 62%
    03:00 +8°C° 0 mm 1 mps 757 mmHg 61%
    04:00 +8°C° 0 mm 1 mps 757 mmHg 60%
    05:00 +8°C° 0 mm 1 mps 757 mmHg 59%
    06:00 +8°C° 0 mm 1 mps 757 mmHg 59%
    07:00 +8°C° 0 mm 1 mps 757 mmHg 59%
    08:00 +10°C° 0 mm 1 mps 757 mmHg 55%
    09:00 +12°C° 0 mm 1 mps 757 mmHg 52%
    10:00 +14°C° 0 mm 2 mps 757 mmHg 49%
    11:00 +15°C° 0 mm 2 mps 756 mmHg 50%
    12:00 +15°C° 0 mm 2 mps 756 mmHg 51%
    13:00 +16°C° 0 mm 3 mps 756 mmHg 51%
    14:00 +16°C° 0 mm 2 mps 756 mmHg 55%
    15:00 +15°C° 0 mm 2 mps 756 mmHg 58%
    16:00 +15°C° 0 mm 2 mps 756 mmHg 62%
    17:00 +14°C° 0 mm 2 mps 756 mmHg 67%
    18:00 +11°C° 0 mm 3 mps 756 mmHg 72%
    19:00 +10°C° 0 mm 3 mps 757 mmHg 78%
    20:00 +10°C° 0 mm 3 mps 757 mmHg 77%
    21:00 +10°C° 0 mm 2 mps 757 mmHg 76%
    22:00 +10°C° 0 mm 2 mps 757 mmHg 75%
    23:00 +10°C° 0 mm 2 mps 757 mmHg 72%

    Day after tomorrow, 25 February, Tuesday

    Time Temperature Precipitation Wind Pressure Humidity
    00:00 +11°C° 0 mm 1 mps 756 mmHg 70%
    01:00 +11°C° 0 mm 1 mps 756 mmHg 68%
    02:00 +11°C° 0 mm 1 mps 756 mmHg 68%
    03:00 +10°C° 0 mm 1 mps 755 mmHg 68%
    04:00 +10°C° 0 mm 1 mps 755 mmHg 68%
    05:00 +9°C° 0 mm 2 mps 755 mmHg 66%
    06:00 +9°C° 0 mm 2 mps 755 mmHg 65%
    07:00 +10°C° 0 mm 3 mps 755 mmHg 64%
    08:00 +12°C° 0 mm 4 mps 754 mmHg 60%
    09:00 +14°C° 0 mm 4 mps 754 mmHg 55%
    10:00 +16°C° 0 mm 5 mps 754 mmHg 51%
    11:00 +16°C° 0 mm 6 mps 754 mmHg 54%
    12:00 +17°C° 0 mm 6 mps 753 mmHg 57%
    13:00 +17°C° 0 mm 7 mps 753 mmHg 59%
    14:00 +17°C° 0 mm 7 mps 753 mmHg 61%
    15:00 +17°C° 0 mm 8 mps 752 mmHg 63%
    16:00 +16°C° 0 mm 8 mps 751 mmHg 65%
    17:00 +15°C° 0 mm 8 mps 751 mmHg 70%
    18:00 +12°C° 0 mm 8 mps 751 mmHg 76%
    19:00 +11°C° 0 mm 8 mps 751 mmHg 81%
    20:00 +11°C° 0 mm 8 mps 751 mmHg 82%
    21:00 +10°C° 0 mm 8 mps 751 mmHg 83%
    22:00 +10°C° 0 mm 8 mps 751 mmHg 84%
    23:00 +10°C° 0 mm 7 mps 751 mmHg 84%

    26 February, Wednesday

    Time Temperature Precipitation Wind Pressure Humidity
    00:00 +9°C° 0 mm 7 mps 750 mmHg 84%
    01:00 +9°C° 0 mm 7 mps 750 mmHg 84%
    02:00 +9°C° 0 mm 7 mps 749 mmHg 83%
    03:00 +9°C° 0 mm 7 mps 749 mmHg 81%
    04:00 +8°C° 0 mm 7 mps 748 mmHg 80%
    05:00 +8°C° 0 mm 7 mps 748 mmHg 79%
    06:00 +8°C° 0 mm 7 mps 748 mmHg 79%
    07:00 +8°C° 0 mm 7 mps 748 mmHg 78%
    08:00 +10°C° 0 mm 7 mps 747 mmHg 73%
    09:00 +12°C° 0 mm 8 mps 747 mmHg 68%
    10:00 +15°C° 0 mm 9 mps 747 mmHg 63%
    11:00 +14°C° 0.1 mm 10 mps 747 mmHg 63%
    12:00 +16°C° 0.1 mm 11 mps 746 mmHg 63%
    13:00 +15°C° 0.1 mm 13 mps 746 mmHg 62%
    14:00 +15°C° 0.2 mm 12 mps 745 mmHg 64%
    15:00 +14°C° 0.2 mm 12 mps 744 mmHg 65%
    16:00 +14°C° 0.2 mm 11 mps 744 mmHg 67%
    17:00 +13°C° 0.2 mm 10 mps 744 mmHg 71%
    18:00 +11°C° 0.2 mm 10 mps 744 mmHg 76%
    19:00 +10°C° 0.2 mm 9 mps 744 mmHg 80%
    20:00 +10°C° 0.3 mm 9 mps 744 mmHg 81%
    21:00 +10°C° 0.3 mm 9 mps 744 mmHg 83%
    22:00 +10°C° 0.3 mm 8 mps 744 mmHg 84%
    23:00 +8°C° 0.1 mm 9 mps 744 mmHg 82%

    27 February, Thursday

    Time Temperature Precipitation Wind Pressure Humidity
    00:00 +8°C° 0.1 mm 9 mps 744 mmHg 80%
    01:00 +8°C° 0.1 mm 9 mps 744 mmHg 78%
    02:00 +7°C° 0.5 mm 10 mps 743 mmHg 79%
    03:00 +7°C° 0.5 mm 10 mps 743 mmHg 80%
    04:00 +7°C° 0.5 mm 10 mps 742 mmHg 81%
    05:00 +6°C° 0.8 mm 9 mps 743 mmHg 82%
    06:00 +5°C° 0.8 mm 8 mps 743 mmHg 83%
    07:00 +5°C° 0.8 mm 6 mps 743 mmHg 84%
    08:00 +5°C° 0.9 mm 8 mps 743 mmHg 83%
    09:00 +5°C° 0.9 mm 9 mps 744 mmHg 83%
    10:00 +5°C° 0.9 mm 10 mps 745 mmHg 83%
    11:00 +6°C° 0.8 mm 10 mps 745 mmHg 82%
    12:00 +7°C° 0.8 mm 10 mps 746 mmHg 81%
    13:00 +7°C° 0.8 mm 10 mps 746 mmHg 80%
    14:00 +6°C° 0.3 mm 10 mps 747 mmHg 81%
    15:00 +6°C° 0.3 mm 9 mps 748 mmHg 81%
    16:00 +5°C° 0.3 mm 8 mps 749 mmHg 81%
    17:00 +4°C° 0 mm 7 mps 750 mmHg 80%
    18:00 +4°C° 0 mm 6 mps 751 mmHg 79%
    19:00 +3°C° 0 mm 5 mps 752 mmHg 79%
    20:00 +4°C° 0 mm 4 mps 753 mmHg 78%
    21:00 +3°C° 0 mm 4 mps 754 mmHg 78%
    22:00 +3°C° 0 mm 3 mps 754 mmHg 78%
    23:00 +3°C° 0 mm 3 mps 755 mmHg 77%

    28 February, Friday

    Time Temperature Precipitation Wind Pressure Humidity
    00:00 +3°C° 0 mm 3 mps 755 mmHg 77%
    01:00 +3°C° 0 mm 3 mps 755 mmHg 76%
    02:00 +3°C° 0 mm 3 mps 755 mmHg 75%
    03:00 +3°C° 0 mm 3 mps 755 mmHg 73%
    04:00 +3°C° 0 mm 3 mps 755 mmHg 72%
    05:00 +3°C° 0 mm 4 mps 755 mmHg 71%
    06:00 +3°C° 0 mm 4 mps 755 mmHg 71%
    07:00 +2°C° 0 mm 5 mps 755 mmHg 70%
    08:00 +5°C° 0 mm 4 mps 755 mmHg 65%
    09:00 +7°C° 0 mm 4 mps 755 mmHg 61%
    10:00 +10°C° 0 mm 4 mps 755 mmHg 57%
    11:00 +9°C° 0 mm 5 mps 755 mmHg 61%
    12:00 +9°C° 0 mm 5 mps 755 mmHg 65%
    13:00 +9°C° 0 mm 5 mps 755 mmHg 69%
    14:00 +9°C° 0 mm 5 mps 755 mmHg 69%
    15:00 +9°C° 0 mm 5 mps 755 mmHg 69%
    16:00 +10°C° 0 mm 4 mps 755 mmHg 69%
    17:00 +8°C° 0 mm 4 mps 755 mmHg 72%
    18:00 +8°C° 0 mm 4 mps 756 mmHg 75%
    19:00 +7°C° 0 mm 4 mps 756 mmHg 77%
    20:00 +7°C° 0 mm 5 mps 756 mmHg 77%
    21:00 +7°C° 0 mm 5 mps 756 mmHg 76%
    22:00 +7°C° 0 mm 5 mps 756 mmHg 76%
    23:00 +7°C° 0 mm 5 mps 756 mmHg 75%
    Show more